• In Netherlands
  • List of Countries
  • For 7 days
  • Water Temperature
  • Satellite Maps
  • Weather Map
  • Weather Widgets
  • user-avatar
    Login

    Hourly Weather Mazyr

    Today, 28 February, Tuesday

    Time Temperature Precipitation Wind Pressure Humidity
    00:00 +1°C° 0 mm 2 mps 746 mmHg 99%
    01:00 +1°C° 0 mm 2 mps 746 mmHg 99%
    02:00 +1°C° 0 mm 2 mps 745 mmHg 99%
    03:00 +1°C° 0 mm 2 mps 745 mmHg 98%
    04:00 +1°C° 0 mm 2 mps 745 mmHg 97%
    05:00 0°C° 0 mm 3 mps 745 mmHg 97%
    06:00 0°C° 0 mm 3 mps 744 mmHg 94%
    07:00 0°C° 0 mm 3 mps 744 mmHg 92%
    08:00 0°C° 0 mm 4 mps 744 mmHg 89%
    09:00 +1°C° 0 mm 4 mps 744 mmHg 84%
    10:00 +2°C° 0 mm 5 mps 743 mmHg 80%
    11:00 +3°C° 0 mm 5 mps 743 mmHg 75%
    12:00 +5°C° 0 mm 5 mps 743 mmHg 75%
    13:00 +6°C° 0 mm 5 mps 742 mmHg 74%
    14:00 +7°C° 0 mm 5 mps 742 mmHg 74%
    15:00 +6°C° 0 mm 5 mps 741 mmHg 78%
    16:00 +6°C° 0 mm 5 mps 741 mmHg 83%
    17:00 +5°C° 0 mm 4 mps 741 mmHg 87%
    18:00 +5°C° 0 mm 4 mps 741 mmHg 90%
    19:00 +5°C° 0 mm 4 mps 741 mmHg 93%
    20:00 +5°C° 0 mm 5 mps 741 mmHg 96%
    21:00 +5°C° 0 mm 5 mps 741 mmHg 96%
    22:00 +5°C° 0 mm 5 mps 741 mmHg 95%
    23:00 +5°C° 0 mm 4 mps 741 mmHg 95%

    Tomorrow, 1 March, Wednesday

    Time Temperature Precipitation Wind Pressure Humidity
    00:00 +5°C° 0 mm 4 mps 741 mmHg 95%
    01:00 +5°C° 0 mm 4 mps 740 mmHg 95%
    02:00 +5°C° 0 mm 4 mps 740 mmHg 95%
    03:00 +4°C° 0 mm 4 mps 740 mmHg 96%
    04:00 +4°C° 0 mm 4 mps 740 mmHg 96%
    05:00 +4°C° 0 mm 4 mps 740 mmHg 97%
    06:00 +4°C° 0 mm 4 mps 740 mmHg 96%
    07:00 +4°C° 0 mm 4 mps 740 mmHg 96%
    08:00 +2°C° 0 mm 5 mps 740 mmHg 95%
    09:00 +3°C° 0 mm 5 mps 740 mmHg 93%
    10:00 +5°C° 0 mm 5 mps 740 mmHg 90%
    11:00 +5°C° 0 mm 5 mps 739 mmHg 87%
    12:00 +6°C° 0 mm 5 mps 739 mmHg 84%
    13:00 +7°C° 0 mm 5 mps 738 mmHg 81%
    14:00 +8°C° 0 mm 5 mps 738 mmHg 78%
    15:00 +8°C° 0 mm 5 mps 738 mmHg 81%
    16:00 +8°C° 0 mm 4 mps 738 mmHg 85%
    17:00 +7°C° 0 mm 4 mps 738 mmHg 88%
    18:00 +8°C° 0 mm 3 mps 738 mmHg 91%
    19:00 +7°C° 0 mm 3 mps 738 mmHg 93%
    20:00 +7°C° 0 mm 3 mps 738 mmHg 96%
    21:00 +5°C° 0.2 mm 3 mps 738 mmHg 96%
    22:00 +5°C° 0.2 mm 3 mps 739 mmHg 97%
    23:00 +6°C° 0.2 mm 2 mps 739 mmHg 97%

    Day after tomorrow, 2 March, Thursday

    Time Temperature Precipitation Wind Pressure Humidity
    00:00 +5°C° 0.3 mm 2 mps 739 mmHg 97%
    01:00 +5°C° 0.3 mm 2 mps 739 mmHg 96%
    02:00 +5°C° 0.3 mm 2 mps 739 mmHg 96%
    03:00 +4°C° 0.3 mm 2 mps 740 mmHg 95%
    04:00 +4°C° 0.3 mm 2 mps 740 mmHg 95%
    05:00 +4°C° 0.3 mm 2 mps 740 mmHg 94%
    06:00 +4°C° 0.3 mm 2 mps 740 mmHg 94%
    07:00 +3°C° 0.3 mm 2 mps 740 mmHg 94%
    08:00 +4°C° 0.3 mm 1 mps 741 mmHg 94%
    09:00 +4°C° 0.1 mm 2 mps 741 mmHg 89%
    10:00 +5°C° 0.1 mm 2 mps 741 mmHg 84%
    11:00 +6°C° 0.1 mm 2 mps 742 mmHg 80%
    12:00 +6°C° 0 mm 2 mps 742 mmHg 76%
    13:00 +7°C° 0 mm 3 mps 741 mmHg 71%
    14:00 +8°C° 0 mm 3 mps 741 mmHg 67%
    15:00 +7°C° 0 mm 2 mps 741 mmHg 72%
    16:00 +7°C° 0 mm 2 mps 742 mmHg 77%
    17:00 +6°C° 0 mm 2 mps 742 mmHg 82%
    18:00 +5°C° 0 mm 2 mps 742 mmHg 86%
    19:00 +3°C° 0 mm 3 mps 741 mmHg 89%
    20:00 +2°C° 0 mm 3 mps 741 mmHg 93%
    21:00 +3°C° 0.1 mm 3 mps 741 mmHg 92%
    22:00 +3°C° 0.1 mm 4 mps 741 mmHg 92%
    23:00 +3°C° 0.1 mm 4 mps 741 mmHg 91%

    3 March, Friday

    Time Temperature Precipitation Wind Pressure Humidity
    00:00 +3°C° 0.1 mm 4 mps 741 mmHg 91%
    01:00 +3°C° 0.1 mm 4 mps 741 mmHg 91%
    02:00 +3°C° 0.1 mm 4 mps 741 mmHg 91%
    03:00 +1°C° 0 mm 4 mps 741 mmHg 90%
    04:00 +1°C° 0 mm 4 mps 741 mmHg 89%
    05:00 0°C° 0 mm 5 mps 740 mmHg 88%
    06:00 +1°C° 0.1 mm 5 mps 741 mmHg 87%
    07:00 +1°C° 0.1 mm 5 mps 741 mmHg 87%
    08:00 +1°C° 0.1 mm 5 mps 742 mmHg 86%
    09:00 +2°C° 0 mm 5 mps 743 mmHg 84%
    10:00 +2°C° 0 mm 5 mps 743 mmHg 82%
    11:00 +3°C° 0 mm 6 mps 744 mmHg 80%
    12:00 +3°C° 0 mm 5 mps 745 mmHg 78%
    13:00 +3°C° 0 mm 5 mps 745 mmHg 76%
    14:00 +4°C° 0 mm 4 mps 746 mmHg 74%
    15:00 +4°C° 0 mm 4 mps 746 mmHg 77%
    16:00 +4°C° 0 mm 3 mps 746 mmHg 79%
    17:00 +4°C° 0 mm 2 mps 746 mmHg 82%
    18:00 +4°C° 0 mm 2 mps 747 mmHg 86%
    19:00 +2°C° 0 mm 3 mps 747 mmHg 90%
    20:00 +1°C° 0 mm 3 mps 747 mmHg 94%
    21:00 +1°C° 0 mm 3 mps 747 mmHg 95%
    22:00 0°C° 0 mm 3 mps 748 mmHg 96%
    23:00 0°C° 0 mm 3 mps 748 mmHg 96%

    4 March, Saturday

    Time Temperature Precipitation Wind Pressure Humidity
    00:00 0°C° 0 mm 3 mps 748 mmHg 97%
    01:00 -1°C° 0 mm 2 mps 748 mmHg 97%
    02:00 -1°C° 0 mm 2 mps 748 mmHg 97%
    03:00 -1°C° 0 mm 2 mps 748 mmHg 96%
    04:00 -1°C° 0 mm 2 mps 747 mmHg 96%
    05:00 -1°C° 0 mm 2 mps 747 mmHg 95%
    06:00 +1°C° 0 mm 2 mps 747 mmHg 92%
    07:00 0°C° 0 mm 3 mps 747 mmHg 90%
    08:00 +1°C° 0 mm 3 mps 747 mmHg 87%
    09:00 +2°C° 0 mm 3 mps 747 mmHg 84%
    10:00 +3°C° 0 mm 4 mps 747 mmHg 81%
    11:00 +5°C° 0 mm 4 mps 747 mmHg 78%
    12:00 +6°C° 0 mm 4 mps 746 mmHg 76%
    13:00 +7°C° 0 mm 4 mps 746 mmHg 73%
    14:00 +8°C° 0 mm 4 mps 746 mmHg 71%
    15:00 +7°C° 0 mm 4 mps 746 mmHg 74%
    16:00 +7°C° 0 mm 4 mps 745 mmHg 78%
    17:00 +7°C° 0 mm 3 mps 745 mmHg 81%
    18:00 +7°C° 0 mm 3 mps 745 mmHg 84%
    19:00 +5°C° 0 mm 4 mps 746 mmHg 86%
    20:00 +5°C° 0 mm 4 mps 746 mmHg 89%
    21:00 +5°C° 0 mm 4 mps 746 mmHg 89%
    22:00 +4°C° 0 mm 4 mps 746 mmHg 89%
    23:00 +4°C° 0 mm 4 mps 746 mmHg 90%

    5 March, Sunday

    Time Temperature Precipitation Wind Pressure Humidity
    00:00 +4°C° 0 mm 4 mps 746 mmHg 91%
    01:00 +4°C° 0 mm 4 mps 746 mmHg 92%
    02:00 +3°C° 0 mm 4 mps 746 mmHg 93%
    03:00 +3°C° 0 mm 4 mps 746 mmHg 94%
    04:00 +3°C° 0 mm 4 mps 746 mmHg 95%
    05:00 +3°C° 0 mm 3 mps 746 mmHg 96%
    06:00 +3°C° 0 mm 3 mps 746 mmHg 95%
    07:00 +3°C° 0 mm 3 mps 747 mmHg 95%
    08:00 +3°C° 0 mm 3 mps 747 mmHg 94%
    09:00 +4°C° 0 mm 3 mps 747 mmHg 88%
    10:00 +7°C° 0 mm 3 mps 747 mmHg 81%
    11:00 +8°C° 0 mm 3 mps 748 mmHg 75%
    12:00 +10°C° 0 mm 3 mps 748 mmHg 73%
    13:00 +11°C° 0 mm 4 mps 747 mmHg 70%
    14:00 +12°C° 0 mm 4 mps 747 mmHg 68%
    15:00 +11°C° 0 mm 3 mps 747 mmHg 72%
    16:00 +10°C° 0 mm 3 mps 748 mmHg 76%
    17:00 +10°C° 0 mm 3 mps 748 mmHg 80%
    18:00 +9°C° 0 mm 3 mps 748 mmHg 84%
    19:00 +8°C° 0 mm 3 mps 748 mmHg 87%
    20:00 +7°C° 0 mm 3 mps 748 mmHg 90%
    21:00 +7°C° 0 mm 3 mps 748 mmHg 91%
    22:00 +5°C° 0 mm 3 mps 748 mmHg 93%
    23:00 +5°C° 0 mm 3 mps 748 mmHg 94%
    Show more